TimeCDT,TemperatureF,Dew PointF,Humidity,Sea Level PressureIn,VisibilityMPH,Wind Direction,Wind SpeedMPH,Gust SpeedMPH,PrecipitationIn,Events,Conditions,WindDirDegrees,DateUTC
12:15 AM,22.8,9.7,57,30.10,10.0,North,10.4,-,N/A,,Overcast,350,2013-03-17 05:15:00
12:35 AM,22.5,5.7,49,30.11,10.0,NNW,8.1,-,N/A,,Overcast,340,2013-03-17 05:35:00
12:55 AM,21.6,4.5,48,30.12,10.0,NNW,10.4,-,N/A,,Overcast,340,2013-03-17 05:55:00
1:15 AM,20.3,4.5,50,30.14,10.0,NNW,8.1,-,N/A,,Scattered Clouds,340,2013-03-17 06:15:00
1:35 AM,19.2,4.6,53,30.16,10.0,North,8.1,-,N/A,,Clear,350,2013-03-17 06:35:00
1:55 AM,18.9,5.0,55,30.17,10.0,North,6.9,-,N/A,,Clear,350,2013-03-17 06:55:00
2:15 AM,18.3,5.7,58,30.18,10.0,North,8.1,-,N/A,,Clear,360,2013-03-17 07:15:00
2:35 AM,17.8,7.7,65,30.20,10.0,North,6.9,-,N/A,,Mostly Cloudy,10,2013-03-17 07:35:00
2:55 AM,17.1,4.8,59,30.21,10.0,NNE,8.1,-,N/A,,Overcast,20,2013-03-17 07:55:00
3:35 AM,15.8,1.2,53,30.22,10.0,North,8.1,-,N/A,,Mostly Cloudy,360,2013-03-17 08:35:00
3:55 AM,15.1,1.4,55,30.22,10.0,North,6.9,-,N/A,,Scattered Clouds,360,2013-03-17 08:55:00
4:15 AM,14.7,1.4,56,30.23,10.0,North,4.6,-,N/A,,Clear,10,2013-03-17 09:15:00
4:35 AM,13.5,1.4,59,30.23,10.0,North,5.8,-,N/A,,Clear,360,2013-03-17 09:35:00
4:55 AM,12.7,2.1,63,30.23,10.0,North,6.9,-,N/A,,Clear,10,2013-03-17 09:55:00
5:15 AM,12.6,1.0,60,30.24,10.0,NNE,10.4,-,N/A,,Clear,20,2013-03-17 10:15:00
5:35 AM,11.7,-0.6,58,30.25,10.0,NE,6.9,-,N/A,,Clear,40,2013-03-17 10:35:00
5:55 AM,11.3,-1.5,57,30.26,10.0,NNE,8.1,-,N/A,,Clear,30,2013-03-17 10:55:00
6:15 AM,10.2,-2.4,57,30.26,10.0,NNE,6.9,-,N/A,,Clear,20,2013-03-17 11:15:00
6:35 AM,10.2,-3.5,54,30.26,10.0,North,9.2,-,N/A,,Clear,10,2013-03-17 11:35:00
6:55 AM,9.5,-3.6,55,30.27,10.0,North,5.8,-,N/A,,Clear,10,2013-03-17 11:55:00
7:15 AM,9.1,-3.8,56,30.27,10.0,North,3.5,-,N/A,,Clear,360,2013-03-17 12:15:00
7:35 AM,9.3,-3.8,55,30.27,10.0,North,3.5,-,N/A,,Clear,360,2013-03-17 12:35:00
7:55 AM,9.5,-3.6,55,30.27,10.0,North,8.1,-,N/A,,Clear,10,2013-03-17 12:55:00
8:15 AM,10.4,-3.3,54,30.28,10.0,NNE,9.2,-,N/A,,Clear,20,2013-03-17 13:15:00
8:35 AM,11.3,-2.7,53,30.28,10.0,NNE,6.9,-,N/A,,Clear,20,2013-03-17 13:35:00
8:55 AM,11.8,-2.2,53,30.29,10.0,NNE,9.2,-,N/A,,Clear,20,2013-03-17 13:55:00
9:15 AM,12.6,-1.8,53,30.29,10.0,NNE,10.4,-,N/A,,Clear,20,2013-03-17 14:15:00
9:35 AM,13.3,-1.3,52,30.30,10.0,North,6.9,-,N/A,,Clear,10,2013-03-17 14:35:00
9:55 AM,14.7,-0.6,51,30.31,10.0,Calm,Calm,-,N/A,,Clear,0,2013-03-17 14:55:00
10:15 AM,16.9,0.5,49,30.32,10.0,ENE,8.1,-,N/A,,Clear,70,2013-03-17 15:15:00
10:35 AM,17.2,0.7,48,30.31,10.0,ENE,4.6,-,N/A,,Clear,70,2013-03-17 15:35:00
10:55 AM,18.0,2.1,50,30.32,10.0,ENE,5.8,-,N/A,,Clear,60,2013-03-17 15:55:00
11:15 AM,18.9,3.2,51,30.32,10.0,ENE,5.8,-,N/A,,Clear,60,2013-03-17 16:15:00
11:35 AM,18.7,5.0,55,30.32,10.0,ENE,5.8,-,N/A,,Clear,70,2013-03-17 16:35:00
11:55 AM,19.8,6.4,56,30.31,10.0,East,5.8,-,N/A,,Clear,100,2013-03-17 16:55:00
12:15 PM,20.3,7.0,56,30.31,10.0,East,6.9,-,N/A,,Clear,90,2013-03-17 17:15:00
12:35 PM,20.5,7.5,57,30.30,10.0,East,8.1,-,N/A,,Clear,90,2013-03-17 17:35:00
12:55 PM,21.2,7.9,57,30.29,10.0,East,6.9,-,N/A,,Clear,100,2013-03-17 17:55:00
1:15 PM,21.6,8.8,58,30.28,10.0,ENE,8.1,-,N/A,,Clear,60,2013-03-17 18:15:00
1:35 PM,21.9,8.8,57,30.27,10.0,East,6.9,-,N/A,,Clear,80,2013-03-17 18:35:00
1:55 PM,22.1,9.3,58,30.27,10.0,ENE,6.9,-,N/A,,Clear,70,2013-03-17 18:55:00
2:15 PM,22.5,10.0,59,30.27,10.0,NE,4.6,-,N/A,,Clear,50,2013-03-17 19:15:00
2:35 PM,23.0,10.2,58,30.26,10.0,East,6.9,-,N/A,,Clear,80,2013-03-17 19:35:00
2:55 PM,23.5,10.6,58,30.25,10.0,ENE,5.8,-,N/A,,Clear,60,2013-03-17 19:55:00
3:15 PM,23.5,10.8,58,30.23,10.0,East,5.8,-,N/A,,Clear,80,2013-03-17 20:15:00
3:35 PM,23.7,10.9,58,30.23,10.0,ENE,6.9,-,N/A,,Clear,60,2013-03-17 20:35:00
3:55 PM,23.7,11.3,59,30.22,10.0,ENE,8.1,-,N/A,,Clear,70,2013-03-17 20:55:00
4:15 PM,23.2,11.8,62,30.22,10.0,ENE,9.2,-,N/A,,Clear,70,2013-03-17 21:15:00
4:35 PM,23.2,12.0,62,30.21,10.0,ENE,9.2,-,N/A,,Clear,70,2013-03-17 21:35:00
4:55 PM,23.5,12.2,62,30.21,10.0,East,5.8,-,N/A,,Clear,90,2013-03-17 21:55:00
5:15 PM,23.0,12.6,64,30.20,10.0,East,8.1,-,N/A,,Clear,90,2013-03-17 22:15:00
5:35 PM,23.0,12.7,65,30.20,10.0,East,8.1,-,N/A,,Clear,80,2013-03-17 22:35:00
5:55 PM,22.5,13.3,68,30.19,10.0,East,8.1,-,N/A,,Clear,80,2013-03-17 22:55:00
6:15 PM,22.1,13.1,68,30.19,10.0,East,5.8,-,N/A,,Clear,80,2013-03-17 23:15:00
6:35 PM,21.7,12.2,67,30.17,10.0,East,8.1,-,N/A,,Clear,90,2013-03-17 23:35:00
6:55 PM,20.7,13.1,73,30.17,10.0,ENE,6.9,-,N/A,,Clear,70,2013-03-17 23:55:00
7:15 PM,19.9,13.1,75,30.17,10.0,ENE,5.8,-,N/A,,Clear,70,2013-03-18 00:15:00
7:35 PM,19.4,12.6,75,30.17,10.0,East,5.8,-,N/A,,Clear,80,2013-03-18 00:35:00
7:55 PM,19.2,12.2,74,30.16,10.0,ENE,3.5,-,N/A,,Clear,70,2013-03-18 00:55:00
8:15 PM,18.7,12.2,76,30.16,10.0,East,3.5,-,N/A,,Clear,90,2013-03-18 01:15:00
8:35 PM,19.2,11.8,73,30.16,10.0,East,3.5,-,N/A,,Clear,90,2013-03-18 01:35:00
8:55 PM,18.5,11.7,75,30.15,10.0,Calm,Calm,-,N/A,,Clear,0,2013-03-18 01:55:00
9:35 PM,17.8,11.5,76,30.16,10.0,Calm,Calm,-,N/A,,Clear,0,2013-03-18 02:35:00
9:55 PM,16.5,11.7,81,30.14,10.0,NE,3.5,-,N/A,,Clear,50,2013-03-18 02:55:00
10:15 PM,17.4,12.2,80,30.14,10.0,NE,3.5,-,N/A,,Clear,50,2013-03-18 03:15:00
10:35 PM,16.3,11.5,81,30.14,10.0,Calm,Calm,-,N/A,,Clear,0,2013-03-18 03:35:00
10:55 PM,11.7,8.6,88,30.11,10.0,Calm,Calm,-,N/A,,Clear,0,2013-03-18 03:55:00
11:15 PM,10.8,7.0,85,30.10,10.0,Calm,Calm,-,N/A,,Clear,0,2013-03-18 04:15:00
11:35 PM,10.9,8.6,90,30.09,10.0,Calm,Calm,-,N/A,,Clear,0,2013-03-18 04:35:00
11:55 PM,11.7,9.3,90,30.07,10.0,Calm,Calm,-,N/A,,Clear,0,2013-03-18 04:55:00